Regional Weather Roundup
Issued by NWS

Home | Current Version | Previous Version | Graphics & Text | Print | Product List | Glossary Off
Versions: 1 2 3 4 5 6 7 8 9 10 11 12 13 14 15 16 17 18 19 20 21 22 23 24 25 26 27 28 29 30 31 32 33 34 35 36 37 38 39 40 41 42 43 44 45 46 47 48 49 50

000
ASUS43 KTOP 221608
RWRKS

WEATHER ROUNDUP FOR KANSAS
NATIONAL WEATHER SERVICE GOODLAND KS
1000 AM CST WED NOV 22 2017

NOTE:  "FAIR" INDICATES FEW OR NO CLOUDS BELOW 12,000 FEET WITH NO
SIGNIFICANT WEATHER AND/OR OBSTRUCTIONS TO VISIBILITY.

KSZ001>006-013>018-027>032-041>047-221700-
NORTHWEST KANSAS

CITY           SKY/WX    TMP DP  RH WIND       PRES   REMARKS
GOODLAND       CLOUDY    52  33  48 W8        30.21R
HAYS           MOSUNNY   36  16  44 S14       30.32F WCI  27
HILL CITY      CLOUDY    40  21  46 S13       30.28F WCI  32
RUSSELL        CLOUDY    34  15  46 S16       30.33F WCI  24
$$

KSZ061>065-074>080-084>089-221700-
SOUTHWEST KANSAS

CITY           SKY/WX    TMP DP  RH WIND       PRES   REMARKS
DODGE CITY     CLOUDY    41  17  38 S15       30.32F
ELKHART        SUNNY     51  34  52 W12       30.27S
GARDEN CITY    CLOUDY    41  24  51 S20       30.28F
GREAT BEND     CLOUDY    34  13  41 S13       30.37S WCI  25
LIBERAL        MOSUNNY   41  26  55 S15       30.32S
PRATT          CLOUDY    32  12  42 S8        30.38F
$$

KSZ066>073-081>083-090>101-221700-
SOUTHEAST KANSAS

CITY           SKY/WX    TMP DP  RH WIND       PRES   REMARKS
CHANUTE        CLOUDY    31  16  54 CALM      30.45R
COFFEYVILLE    CLOUDY    33  18  53 E7        30.45S
HUTCHINSON     CLOUDY    31  16  54 S9        30.41F
MEDICINE LODGE   N/A     32  15  49 S7        30.41F
NEWTON         SUNNY     29  15  56 SW8       30.43S
PARSONS        CLOUDY    32  18  56 VRB3      30.46R
WICHITA INTL   MOSUNNY   30  15  53 SW6       30.43F
WICHITA JABRA  SUNNY     30  14  51 S6        30.42F
WICHITA MCCONL SUNNY     31  13  47 W6        30.43S
WINFIELD       SUNNY     32  17  54 SW3       30.46R
$$

KSZ007>012-019>026-033>040-048>060-102>105-221700-
NORTHEAST KANSAS

CITY           SKY/WX    TMP DP  RH WIND       PRES   REMARKS
CONCORDIA      CLOUDY    29  15  56 S14       30.39F WCI  18
EMPORIA          N/A    N/A N/A N/A MISG      30.43R
LAWRENCE       SUNNY     29  16  58 VRB3      30.45S
MANHATTAN      SUNNY     29  15  56 VRB5      30.44S
MARYSVILLE     SUNNY     30  18  59 SW9       30.41S
OLATHE IND     SUNNY     29  17  61 VRB3      30.45R
OLATHE EXE     SUNNY     28  15  58 E5        30.44R
SALINA         CLOUDY    32  17  54 S8        30.42F
TOPEKA BILLARD SUNNY     29  17  61 SE6       30.44F
TOPEKA FORBES  SUNNY     30  15  53 SE7       30.42F
$$




USA.gov is the U.S. government's official web portal to all federal, state and local government web resources and services.